| time (UTC) | temp F | wind direction | speed knots | gust knots | rain 1hr in | rain 24hr in | rain mn in | humidity % | barometer mb |
| 20260510114440 | 64 | 0.0 | 0.0 | 0.00 | 0.00 | 0.00 | 52 | 1035.5 | |
| 20260510111440 | 65 | 0.0 | 0.0 | 0.00 | 0.00 | 0.00 | 52 | 1035.5 | |
| 20260510104440 | 65 | 0.0 | 0.0 | 0.00 | 0.00 | 0.00 | 52 | 1035.3 | |
| 20260510101440 | 65 | 0.0 | 0.0 | 0.00 | 0.00 | 0.00 | 52 | 1035.2 | |
| 20260510094441 | 65 | 0.0 | 0.0 | 0.00 | 0.00 | 0.00 | 52 | 1035.0 | |
| 20260510091440 | 66 | 0.0 | 0.0 | 0.00 | 0.00 | 0.00 | 51 | 1034.7 | |
| 20260510084441 | 66 | 0.0 | 0.0 | 0.00 | 0.00 | 0.00 | 51 | 1034.4 | |
| 20260510081441 | 66 | 0.0 | 0.0 | 0.00 | 0.00 | 0.00 | 51 | 1033.9 | |
| 20260510074440 | 66 | 0.0 | 0.0 | 0.00 | 0.00 | 0.00 | 51 | 1033.6 | |
| 20260510071440 | 67 | 0.0 | 0.0 | 0.00 | 0.00 | 0.00 | 51 | 1033.2 | |
| 20260510064440 | 68 | 0.0 | 0.0 | 0.00 | 0.00 | 0.00 | 51 | 1032.7 | |
| 20260510061439 | 68 | 0.0 | 0.0 | 0.00 | 0.00 | 0.00 | 50 | 1032.6 | |
| 20260510054439 | 68 | 0.0 | 0.0 | 0.00 | 0.00 | 0.00 | 49 | 1032.3 | |
| 20260510051441 | 69 | 0.0 | 0.0 | 0.00 | 0.00 | 0.00 | 48 | 1032.1 | |
| 20260510044440 | 69 | 0.0 | 0.0 | 0.00 | 0.00 | 0.00 | 48 | 1031.8 | |
| 20260510041439 | 69 | 0.0 | 0.0 | 0.00 | 0.00 | 0.00 | 48 | 1031.7 | |
| 20260510034440 | 69 | 0.0 | 0.0 | 0.00 | 0.00 | 0.00 | 48 | 1031.5 | |
| 20260510031439 | 68 | 0.0 | 0.0 | 0.00 | 0.00 | 0.00 | 48 | 1031.5 | |
| 20260510024440 | 68 | 0.0 | 0.0 | 0.00 | 0.00 | 0.00 | 49 | 1031.6 | |
| 20260510021439 | 67 | 0.0 | 0.0 | 0.00 | 0.00 | 0.00 | 49 | 1031.9 | |
| 20260510014439 | 67 | 0.0 | 0.0 | 0.00 | 0.00 | 0.00 | 50 | 1032.1 | |
| 20260510011438 | 66 | 0.0 | 0.0 | 0.00 | 0.00 | 0.00 | 49 | 1032.3 | |
| 20260510004440 | 66 | 0.0 | 0.0 | 0.00 | 0.00 | 0.00 | 49 | 1032.7 | |
| 20260510001438 | 65 | 0.0 | 0.0 | 0.00 | 0.00 | 0.00 | 49 | 1032.8 | |
| 20260509234438 | 65 | 0.0 | 0.0 | 0.00 | 0.00 | 0.00 | 52 | 1032.6 | |
| 20260509231438 | 63 | 0.0 | 0.0 | 0.00 | 0.00 | 0.00 | 53 | 1032.8 | |
| 20260509224438 | 61 | 0.0 | 0.0 | 0.00 | 0.00 | 0.00 | 54 | 1032.8 | |
| 20260509221438 | 60 | 0.0 | 0.0 | 0.00 | 0.00 | 0.00 | 55 | 1032.4 | |
| 20260509214438 | 59 | 0.0 | 0.0 | 0.00 | 0.00 | 0.00 | 55 | 1032.0 | |
| 20260509211438 | 60 | 0.0 | 0.0 | 0.00 | 0.00 | 0.00 | 53 | 1031.7 | |
| 20260509204438 | 59 | 0.0 | 0.0 | 0.00 | 0.00 | 0.00 | 50 | 1031.2 | |
| 20260509201438 | 59 | 0.0 | 0.0 | 0.00 | 0.00 | 0.00 | 50 | 1030.9 | |
| 20260509194438 | 59 | 0.0 | 0.0 | 0.00 | 0.00 | 0.00 | 50 | 1030.6 | |
| 20260509191438 | 59 | 0.0 | 0.0 | 0.00 | 0.00 | 0.00 | 50 | 1030.1 | |
| 20260509184439 | 59 | 0.0 | 0.0 | 0.00 | 0.00 | 0.00 | 50 | 1029.8 | |
| 20260509181440 | 60 | 0.0 | 0.0 | 0.00 | 0.00 | 0.00 | 50 | 1029.4 | |
| 20260509174439 | 60 | 0.0 | 0.0 | 0.00 | 0.00 | 0.00 | 50 | 1029.1 | |
| 20260509171437 | 60 | 0.0 | 0.0 | 0.00 | 0.00 | 0.00 | 49 | 1029.0 | |
| 20260509164437 | 60 | 0.0 | 0.0 | 0.00 | 0.00 | 0.00 | 49 | 1028.8 | |
| 20260509161439 | 60 | 0.0 | 0.0 | 0.00 | 0.00 | 0.00 | 49 | 1028.8 | |
| 20260509154437 | 60 | 0.0 | 0.0 | 0.00 | 0.00 | 0.00 | 49 | 1028.8 | |
| 20260509151437 | 61 | 0.0 | 0.0 | 0.00 | 0.00 | 0.00 | 49 | 1028.9 | |
| 20260509144439 | 61 | 0.0 | 0.0 | 0.00 | 0.00 | 0.00 | 49 | 1028.7 | |
| 20260509141437 | 61 | 0.0 | 0.0 | 0.00 | 0.00 | 0.00 | 48 | 1028.8 | |
| 20260509134438 | 62 | 0.0 | 0.0 | 0.00 | 0.00 | 0.00 | 48 | 1028.8 | |
| 20260509131437 | 62 | 0.0 | 0.0 | 0.00 | 0.00 | 0.00 | 48 | 1028.9 | |
| 20260509124438 | 63 | 0.0 | 0.0 | 0.00 | 0.00 | 0.00 | 47 | 1028.8 | |
| 20260509121437 | 63 | 0.0 | 0.0 | 0.00 | 0.00 | 0.00 | 47 | 1028.9 |